Location: Unspecified
(47.9110°N, 14.3980°E)
Time: 10:42:25
(UTC+00:00)

Meteor 1-20 Rocket - Pass Details

Date: 06 August 2020
Orbit: 819 x 892 km, 81.2° (Epoch: 20 September)

Event Time Altitude Azimuth Distance (km) Brightness Sun altitude
Exits shadow 20:44:59 24° 178° (S) 1,735 5.4 -18.2°
Maximum altitude 20:48:33 74° 98° (E) 927 4.2 -18.5°
Drops below altitude 10° 20:54:24 10° 15° (NNE) 2,573 7.3 -19.1°
Sets 20:56:53 0° 14° (NNE) 3,518 8.1 -19.3°
